KB1DML-5 Weather Reports


time (UTC)temp
C
wind
direction
speed
KPH
gust
KPH
rain 1hr
cm
rain 24hr
cm
rain mn
cm
humidity
%
barometer
mb
20260505080016 11 203 19.3 25.7 0.00 0.00 0.00 82 1011.1
20260505075516 11 203 19.3 24.1 0.00 0.00 0.00 82 1011.1
20260505075016 11 203 19.3 24.1 0.00 0.00 0.00 82 1011.1
20260505074536 11 203 17.7 22.5 0.00 0.00 0.00 81 1011.0
20260505074016 11 203 19.3 25.7 0.00 0.00 0.00 81 1011.1
20260505073517 11 203 19.3 22.5 0.00 0.00 0.00 81 1011.1
20260505073016 11 203 19.3 22.5 0.00 0.00 0.00 81 1011.1
20260505072516 11 203 19.3 22.5 0.00 0.00 0.00 81 1011.2
20260505072016 11 203 20.9 25.7 0.00 0.00 0.00 80 1011.1
20260505071516 11 203 22.5 29.0 0.00 0.00 0.00 80 1011.2
20260505071016 11 203 20.9 27.4 0.00 0.00 0.00 80 1011.2
20260505070516 11 203 20.9 29.0 0.00 0.00 0.00 79 1011.1
20260505070016 11 203 20.9 25.7 0.00 0.00 0.00 79 1011.1
20260505065657 12 203 20.9 25.7 0.00 0.00 0.00 79 1011.1
20260505065016 12 203 20.9 29.0 0.00 0.00 0.00 79 1011.1
20260505064516 12 203 20.9 25.7 0.00 0.00 0.00 79 1011.1
20260505064015 12 203 20.9 30.6 0.00 0.00 0.00 79 1011.1
20260505063517 12 203 20.9 25.7 0.00 0.00 0.00 79 1011.1
20260505063016 12 203 19.3 25.7 0.00 0.00 0.00 79 1011.1
20260505062536 12 203 17.7 24.1 0.00 0.00 0.00 79 1011.0
20260505062016 12 203 17.7 22.5 0.00 0.00 0.00 78 1011.0
20260505061516 12 203 17.7 24.1 0.00 0.00 0.00 79 1011.0
20260505061016 12 203 19.3 24.1 0.00 0.00 0.00 79 1011.1
20260505060515 12 203 19.3 25.7 0.00 0.00 0.00 78 1011.2
20260505060036 12 203 17.7 24.1 0.00 0.00 0.00 78 1011.3
20260505055517 12 203 16.1 20.9 0.00 0.00 0.00 78 1011.3
20260505055015 12 203 17.7 25.7 0.00 0.00 0.00 78 1011.2
20260505054515 12 203 19.3 24.1 0.00 0.00 0.00 78 1011.2
20260505054016 12 203 17.7 22.5 0.00 0.00 0.00 78 1011.2
20260505053516 12 203 19.3 25.7 0.00 0.00 0.00 78 1011.2
20260505053016 12 203 19.3 22.5 0.00 0.00 0.00 78 1011.2
20260505052516 12 203 17.7 24.1 0.00 0.00 0.00 78 1011.2
20260505052035 12 203 17.7 24.1 0.00 0.00 0.00 77 1011.3
20260505051516 12 203 20.9 27.4 0.00 0.00 0.00 77 1011.2
20260505051015 12 203 20.9 25.7 0.00 0.00 0.00 77 1011.3
20260505050516 12 203 20.9 27.4 0.00 0.00 0.00 77 1011.3
20260505041516 12 203 20.9 27.4 0.00 0.00 0.00 75 1011.3
20260505041015 12 203 20.9 27.4 0.00 0.00 0.00 75 1011.2
20260505040515 12 203 20.9 29.0 0.00 0.00 0.00 74 1011.3
20260505040056 12 203 20.9 27.4 0.00 0.00 0.00 74 1011.3
20260505035538 12 203 19.3 25.7 0.00 0.00 0.00 74 1011.3
20260505035016 12 203 20.9 30.6 0.00 0.00 0.00 73 1011.1
20260505034516 12 203 20.9 27.4 0.00 0.00 0.00 73 1011.2
20260505034017 12 203 22.5 29.0 0.00 0.00 0.00 73 1011.1
20260505033516 12 203 22.5 27.4 0.00 0.00 0.00 73 1011.2
20260505033016 12 203 22.5 27.4 0.00 0.00 0.00 72 1011.2
20260505032517 12 203 22.5 29.0 0.00 0.00 0.00 72 1011.2
20260505032017 12 203 22.5 29.0 0.00 0.00 0.00 72 1011.2
20260505031516 13 203 20.9 27.4 0.00 0.00 0.00 71 1011.1
20260505031016 13 203 20.9 29.0 0.00 0.00 0.00 71 1011.2
20260505030516 13 203 19.3 24.1 0.00 0.00 0.00 71 1011.2
20260505030017 13 203 20.9 29.0 0.00 0.00 0.00 70 1011.1
20260505025516 13 203 17.7 25.7 0.00 0.00 0.00 70 1011.2
20260505025016 13 203 19.3 25.7 0.00 0.00 0.00 70 1011.2
20260505024536 13 203 20.9 27.4 0.00 0.00 0.00 70 1011.1
20260505024017 13 203 22.5 29.0 0.00 0.00 0.00 70 1011.1
20260505023516 13 203 22.5 30.6 0.00 0.00 0.00 70 1011.2
20260505023016 13 203 24.1 32.2 0.00 0.00 0.00 70 1011.2
20260505022516 13 203 25.7 32.2 0.00 0.00 0.00 70 1011.2
20260505022017 13 203 20.9 29.0 0.00 0.00 0.00 70 1011.2
20260505021516 13 203 25.7 33.8 0.00 0.00 0.00 69 1011.2
20260505021016 13 203 29.0 37.0 0.00 0.00 0.00 69 1011.3
20260505020516 13 203 27.4 38.6 0.00 0.00 0.00 68 1011.2
20260505020017 13 203 24.1 33.8 0.00 0.00 0.00 67 1011.2
20260505015516 13 203 20.9 32.2 0.00 0.00 0.00 66 1011.1
20260505015016 14 203 19.3 25.7 0.00 0.00 0.00 65 1011.0
20260505014516 14 203 20.9 27.4 0.00 0.00 0.00 65 1010.9
20260505014017 15 203 19.3 24.1 0.00 0.00 0.00 64 1010.9
20260505013516 15 203 20.9 32.2 0.00 0.00 0.00 62 1010.7
20260505013016 15 203 20.9 30.6 0.00 0.00 0.00 61 1010.7
20260505012516 15 203 24.1 35.4 0.00 0.00 0.00 61 1010.6
20260505012017 15 203 24.1 35.4 0.00 0.00 0.00 61 1010.6
20260505011517 15 203 24.1 38.6 0.00 0.00 0.00 61 1010.4
20260505011036 15 203 25.7 38.6 0.00 0.00 0.00 61 1010.4
20260505010537 15 203 25.7 32.2 0.00 0.00 0.00 61 1010.3
20260505010057 15 203 27.4 40.2 0.00 0.00 0.00 61 1010.2
20260505005537 15 203 27.4 35.4 0.00 0.00 0.00 61 1010.1
20260505005017 15 203 29.0 35.4 0.00 0.00 0.00 60 1009.9
20260505004516 15 203 25.7 33.8 0.00 0.00 0.00 60 1009.8
20260505004016 15 203 27.4 37.0 0.00 0.00 0.00 59 1009.7
20260505003516 15 203 25.7 38.6 0.00 0.00 0.00 58 1009.6
20260505003016 15 203 24.1 35.4 0.00 0.00 0.00 59 1009.5
20260505002537 16 203 25.7 43.5 0.00 0.00 0.00 58 1009.4
20260505002016 16 203 32.2 43.5 0.00 0.00 0.00 58 1009.2
20260505001517 16 203 30.6 45.1 0.00 0.00 0.00 58 1009.0
20260505001017 16 203 32.2 46.7 0.00 0.00 0.00 58 1008.8
20260505000516 16 203 30.6 41.8 0.00 0.00 0.00 59 1008.9
20260505000016 16 203 35.4 45.1 0.00 0.00 0.00 59 1008.7
20260504235517 16 203 33.8 43.5 0.00 0.00 0.00 59 1008.7
20260504235016 16 203 37.0 49.9 0.00 0.00 0.00 59 1008.6
20260504234516 16 203 38.6 49.9 0.00 0.00 0.00 59 1008.5
20260504234016 16 203 37.0 48.3 0.00 0.00 0.00 58 1008.5
20260504233517 16 203 38.6 56.3 0.00 0.00 0.00 58 1008.4
20260504233016 16 203 33.8 49.9 0.00 0.00 0.00 58 1008.3
20260504232516 16 203 37.0 51.5 0.00 0.00 0.00 58 1008.2
20260504232016 16 203 35.4 48.3 0.00 0.00 0.00 58 1008.1
20260504231517 16 203 37.0 49.9 0.00 0.00 0.00 57 1008.1
20260504231016 17 203 38.6 51.5 0.00 0.00 0.00 57 1007.9
20260504230516 17 203 33.8 40.2 0.00 0.00 0.00 56 1007.7
20260504230016 17 203 32.2 45.1 0.00 0.00 0.00 57 1007.7
20260504225517 17 203 33.8 48.3 0.00 0.00 0.00 56 1007.6
20260504225016 17 203 37.0 46.7 0.00 0.00 0.00 55 1007.5
20260504224516 17 203 33.8 43.5 0.00 0.00 0.00 54 1007.6
20260504224016 17 203 30.6 40.2 0.00 0.00 0.00 54 1007.5
20260504223517 18 203 30.6 38.6 0.00 0.00 0.00 53 1007.4
20260504223016 18 203 32.2 43.5 0.00 0.00 0.00 52 1007.4
20260504222516 18 203 30.6 37.0 0.00 0.00 0.00 51 1007.3
20260504222016 18 203 32.2 46.7 0.00 0.00 0.00 48 1007.3
20260504221517 19 203 27.4 41.8 0.00 0.00 0.00 47 1007.2
20260504221016 20 203 22.5 30.6 0.00 0.00 0.00 45 1007.0
20260504220516 20 180 22.5 32.2 0.00 0.00 0.00 42 1007.0
20260504220016 21 180 14.5 20.9 0.00 0.00 0.00 39 1007.1
20260504215537 21 270 14.5 25.7 0.00 0.00 0.00 37 1007.0
20260504215015 21 225 12.9 22.5 0.00 0.00 0.00 36 1007.0
20260504214516 21 225 12.9 24.1 0.00 0.00 0.00 36 1007.1
20260504214015 22 225 20.9 30.6 0.00 0.00 0.00 36 1006.9
20260504213516 22 225 16.1 30.6 0.00 0.00 0.00 36 1007.0
20260504213016 22 225 17.7 32.2 0.00 0.00 0.00 35 1007.0
20260504212516 22 225 17.7 35.4 0.00 0.00 0.00 36 1007.0
20260504212016 22 225 20.9 35.4 0.00 0.00 0.00 35 1006.9
20260504211516 22 225 14.5 38.6 0.00 0.00 0.00 35 1007.0
20260504211016 22 225 17.7 37.0 0.00 0.00 0.00 34 1006.9
20260504210556 22 225 14.5 29.0 0.00 0.00 0.00 34 1006.9
20260504210016 22 225 12.9 27.4 0.00 0.00 0.00 36 1007.0
20260504205516 22 225 19.3 33.8 0.00 0.00 0.00 34 1007.1
20260504205016 22 225 20.9 37.0 0.00 0.00 0.00 34 1007.1
20260504204515 22 225 16.1 27.4 0.00 0.00 0.00 34 1007.1
20260504204015 22 225 14.5 29.0 0.00 0.00 0.00 34 1007.0
20260504203517 22 225 12.9 25.7 0.00 0.00 0.00 35 1007.1
20260504203016 22 248 12.9 29.0 0.00 0.00 0.00 35 1007.0
20260504202516 22 225 17.7 40.2 0.00 0.00 0.00 34 1007.1
20260504202036 22 225 20.9 40.2 0.00 0.00 0.00 35 1007.1
20260504201516 21 225 22.5 38.6 0.00 0.00 0.00 35 1007.2
20260504201015 21 225 16.1 30.6 0.00 0.00 0.00 35 1007.2
20260504200515 21 225 17.7 32.2 0.00 0.00 0.00 35 1007.3
20260504200015 21 225 17.7 35.4 0.00 0.00 0.00 34 1007.2
20260504195516 21 225 22.5 41.8 0.00 0.00 0.00 35 1007.3
20260504195036 21 225 24.1 41.8 0.00 0.00 0.00 34 1007.3
20260504194515 21 225 22.5 41.8 0.00 0.00 0.00 35 1007.3
20260504194016 21 225 14.5 27.4 0.00 0.00 0.00 35 1007.2
20260504193516 21 225 17.7 33.8 0.00 0.00 0.00 35 1007.3
20260504193035 21 225 19.3 40.2 0.00 0.00 0.00 35 1007.4
20260504192515 21 225 16.1 30.6 0.00 0.00 0.00 35 1007.3
20260504192016 21 225 16.1 25.7 0.00 0.00 0.00 36 1007.5
20260504191515 21 225 22.5 38.6 0.00 0.00 0.00 35 1007.2
20260504191015 21 225 17.7 35.4 0.00 0.00 0.00 36 1007.4
20260504190515 21 248 17.7 33.8 0.00 0.00 0.00 36 1007.4
20260504190016 21 225 24.1 41.8 0.00 0.00 0.00 35 1007.4
20260504185515 21 225 22.5 38.6 0.00 0.00 0.00 36 1007.4
20260504185016 21 225 19.3 35.4 0.00 0.00 0.00 37 1007.4
20260504184515 21 203 22.5 35.4 0.00 0.00 0.00 36 1007.5
20260504184016 21 270 19.3 40.2 0.00 0.00 0.00 37 1007.3
20260504183536 21 225 17.7 35.4 0.00 0.03 0.00 36 1007.3
20260504183015 21 248 14.5 27.4 0.00 0.03 0.00 35 1007.3
20260504182556 21 248 24.1 38.6 0.00 0.03 0.00 36 1007.4
20260504182036 21 225 20.9 41.8 0.00 0.03 0.00 37 1007.2
20260504181515 21 225 20.9 37.0 0.00 0.03 0.00 36 1007.6
20260504181015 21 225 20.9 43.5 0.00 0.03 0.00 37 1007.5
20260504180516 20 225 30.6 46.7 0.00 0.03 0.00 36 1007.6
20260504180015 20 203 30.6 46.7 0.00 0.03 0.00 36 1007.6
20260504175515 21 225 29.0 56.3 0.00 0.03 0.00 36 1007.7
20260504175015 21 225 14.5 30.6 0.00 0.03 0.00 36 1007.7
20260504174536 21 248 17.7 32.2 0.00 0.03 0.00 36 1007.8
20260504174015 21 225 19.3 40.2 0.00 0.03 0.00 36 1007.7
20260504173535 20 225 17.7 33.8 0.00 0.03 0.00 38 1007.9
20260504173015 21 248 16.1 32.2 0.00 0.03 0.00 37 1007.8
20260504172515 20 225 16.1 32.2 0.00 0.03 0.00 36 1007.9
20260504172035 20 225 19.3 35.4 0.00 0.03 0.00 38 1007.7
20260504171535 20 225 22.5 33.8 0.00 0.03 0.00 37 1007.7
20260504171015 20 225 20.9 41.8 0.00 0.03 0.00 38 1007.7
20260504170556 20 225 20.9 38.6 0.00 0.03 0.00 37 1007.8
20260504151018 19 225 22.5 41.8 0.00 0.08 0.00 41 1009.1
20260504150518 19 225 14.5 29.0 0.00 0.08 0.00 41 1009.2
20260504141037 18 225 14.5 32.2 0.00 0.08 0.00 44 1009.7
20260504140517 17 248 11.3 24.1 0.00 0.08 0.00 46 1009.9
20260504130517 15 225 16.1 33.8 0.00 0.08 0.00 51 1010.5
20260504110516 10 203 9.7 16.1 0.00 0.08 0.00 63 1011.3
20260504100516 8 203 9.7 14.5 0.00 0.08 0.00 64 1011.2
20260504081516 8 225 9.7 17.7 0.00 0.08 0.00 62 1010.9
20260504081016 8 225 9.7 17.7 0.00 0.08 0.00 62 1010.9
20260504080517 8 225 8.0 19.3 0.00 0.08 0.00 62 1010.9